Regional Weather Roundup
Issued by NWS

Home | Current Version | Previous Version | Graphics & Text | Print | Product List | Glossary On
Versions: 1 2 3 4 5 6 7 8 9 10 11 12 13 14 15 16 17 18 19 20 21 22 23 24 25 26 27 28 29 30 31 32 33 34 35 36 37 38 39 40 41 42 43 44 45 46 47 48 49 50
000
ASUS44 KMEG 291510
RWRTN
TENNESSEE HOURLY STATE WEATHER ROUNDUP
NATIONAL WEATHER SERVICE MEMPHIS TN
1000 AM CDT WED JUL 29 2015

TNZ002-004-019-021-049-052-054-088>092-291600-
WEST TENNESSEE

CITY           SKY/WX    TMP DP  RH WIND       PRES   REMARKS
MEMPHIS INTL   PTSUNNY   89  76  65 NW6       30.05S HX 100
NWS MEMPHIS      N/A     86 N/A N/A MISG        N/A
JACKSON        SUNNY     91  77  63 W7        30.04S HX 104
DYERSBURG        N/A    N/A N/A N/A MISG        N/A
PARIS          SUNNY     84  75  74 SW3       30.04S HX  92
LEXINGTON      SUNNY     82  75  78 CALM      30.04S
$$

TNZ008-025-027-028-033-062-065-066-291600-
NORTH MIDDLE TENNESSEE

CITY           SKY/WX    TMP DP  RH WIND       PRES   REMARKS
NASHVILLE      PTSUNNY   84  74  71 VRB3      30.05S HX  91
CLARKSVILLE    TSTM      74  69  85 NW20G36   30.06R VSB 1/4
SMYRNA         PTSUNNY   86  75  69 CALM      30.05F HX  95
CROSSVILLE     PTSUNNY   81  71  71 CALM      30.11S
$$

TNZ061-075-076-078-094-096-097-291600-
SOUTH MIDDLE TENNESSEE

CITY           SKY/WX    TMP DP  RH WIND       PRES   REMARKS
FAYETTEVILLE     N/A     82  73  74 CALM      30.06S
TULLAHOMA      MOSUNNY   82  73  74 CALM      30.08S
WINCHESTER     MOSUNNY   82  75  78 CALM      30.07R
MCMINNVILLE    SUNNY     82  81  94 NW3       30.07S HX  95
COLUMBIA       MOSUNNY   82  79  89 E8        30.05  HX  93
SHELBYVILLE    PTSUNNY   84  75  74 CALM      30.07R HX  92
$$

TNZ017-018-042-046-047-291600-
NORTHEAST TENNESSEE

CITY           SKY/WX    TMP DP  RH WIND       PRES   REMARKS
TRI CITIES     CLOUDY    79  71  76 CALM      30.08S
ELIZABETHTON   PTSUNNY   81  72  74 CALM      30.08F
$$

TNZ012-013-036-069-073-074-291600-
CENTRAL EAST TENNESSEE

CITY           SKY/WX    TMP DP  RH WIND       PRES   REMARKS
KNOXVILLE      MOSUNNY   84  72  67 NE3       30.04F
OAK RIDGE      SUNNY     84  70  62 CALM      30.06S
GATLINBURG       N/A     82  70  65 CALM      30.04F
MORRISTOWN       N/A     82  73  74 CALM      30.07S
$$

TNZ083-085-099-291600-
SOUTHEAST TENNESSEE

CITY           SKY/WX    TMP DP  RH WIND       PRES   REMARKS
CHATTANOOGA    PTSUNNY   85  71  63 NW5       30.03F HX  90
$$

SKY/WX REPORTED AS FAIR MEANS FEW OR NO CLOUDS BELOW
12 THOUSAND FEET.



USA.gov is the U.S. government's official web portal to all federal, state and local government web resources and services.